Weather History for Fort Polk, LA

Change the Weather History Date:

Wednesday, March 6, 2013

  Actual Average (KPOE) Record (KPOE)
Temperature  
Mean Temperature 50 °F -  
Max Temperature 64 °F 65 °F 81 °F (2009)
Min Temperature 36 °F 44 °F 36 °F (2007)
Degree Days  
Heating Degree Days 15    
Moisture  
Dew Point 23 °F    
Average Humidity 42    
Maximum Humidity 65    
Minimum Humidity 17    
Precipitation  
Precipitation 0.00 in - - ()
Sea Level Pressure  
Sea Level Pressure 30.31 in    
Wind  
Wind Speed 5 mph (North)    
Max Wind Speed 10 mph    
Max Gust Speed 17 mph    
Visibility 10 miles    
Events      
Averages and records for this station are not official NWS values.
T = Trace of Precipitation, MM = Missing Value Source: NWS Daily Summary

Daily Weather History Graph

Daily Weather History Graph

Search for Another Location

Airport:

Trip Planner

Search our weather history database for the weather conditions in past years. The results will help you decide how hot, cold, wet, or windy it might be!

Date:

Astronomy

Mar. 06, 2013 Rise Set
Actual Time 6:33 AM CST 6:14 PM CST
Civil Twilight 6:08 AM CST 6:39 PM CST
Nautical Twilight 5:40 AM CST 7:07 PM CST
Astronomical Twilight 5:12 AM CST 7:35 PM CST
Moon 2:26 AM CST (3/6) 1:12 PM CST (3/6)
Length of Visible Light 12h 30m
Length of Day
11h 41m
Waning Crescent, 29% of the Moon is Illuminated
Mar 6
Waning Crescent
Mar 11
New
Mar 19
First Quarter
Mar 27
Full
Apr 2
Last Quarter

Hourly Weather History & Observations

Time (CST) Temp. Windchill Dew Point Humidity Pressure Visibility Wind Dir Wind Speed Gust Speed Precip Events Conditions
12:53 AM 45.0 °F 40.6 °F 21.9 °F 40% 30.29 in 10.0 mi NNW 8.1 mph - N/A   Clear
1:53 AM 43.0 °F 38.2 °F 23.0 °F 45% 30.29 in 10.0 mi North 8.1 mph - N/A   Clear
2:53 AM 41.0 °F 37.1 °F 23.0 °F 49% 30.28 in 10.0 mi North 5.8 mph - N/A   Clear
3:53 AM 39.0 °F - 23.0 °F 53% 30.31 in 10.0 mi Calm Calm - N/A   Clear
4:53 AM 36.0 °F 33.3 °F 24.1 °F 62% 30.32 in 10.0 mi NNW 3.5 mph - N/A   Clear
5:53 AM 36.0 °F 33.3 °F 24.1 °F 62% 30.35 in 10.0 mi NNW 3.5 mph - N/A   Clear
6:53 AM 36.0 °F 33.3 °F 24.1 °F 62% 30.36 in 10.0 mi North 3.5 mph - N/A   Clear
7:53 AM 39.9 °F 35.8 °F 24.1 °F 53% 30.38 in 10.0 mi North 5.8 mph - N/A   Clear
8:53 AM 45.0 °F 41.8 °F 24.1 °F 44% 30.40 in 10.0 mi North 5.8 mph 17.3 mph N/A   Clear
9:53 AM 48.9 °F - 21.9 °F 35% 30.39 in 10.0 mi North 10.4 mph - N/A   Clear
10:53 AM 52.0 °F - 21.9 °F 31% 30.38 in 10.0 mi NNW 8.1 mph - N/A   Clear
11:53 AM 55.9 °F - 21.9 °F 27% 30.35 in 10.0 mi Variable 4.6 mph - N/A   Clear
12:53 PM 59.0 °F - 21.0 °F 23% 30.32 in 10.0 mi North 4.6 mph - N/A   Clear
1:53 PM 61.0 °F - 21.0 °F 21% 30.29 in 10.0 mi Variable 5.8 mph - N/A   Clear
2:53 PM 64.0 °F - 18.0 °F 17% 30.27 in 10.0 mi North 6.9 mph - N/A   Clear
3:53 PM 64.0 °F - 18.0 °F 17% 30.25 in 10.0 mi NNE 8.1 mph - N/A   Clear
4:53 PM 63.0 °F - 17.1 °F 17% 30.25 in 10.0 mi Variable 4.6 mph - N/A   Clear
5:53 PM 59.0 °F - 19.0 °F 21% 30.25 in 10.0 mi NNE 5.8 mph - N/A   Clear
6:53 PM 55.0 °F - 26.1 °F 33% 30.27 in 10.0 mi Calm Calm - N/A   Clear
7:53 PM 46.9 °F - 30.0 °F 52% 30.26 in 10.0 mi Calm Calm - N/A   Clear
8:53 PM 44.1 °F - 28.9 °F 55% 30.27 in 10.0 mi Calm Calm - N/A   Clear
9:53 PM 41.0 °F - 30.0 °F 65% 30.27 in 10.0 mi Calm Calm - N/A   Clear
10:53 PM 41.0 °F 37.1 °F 28.9 °F 62% 30.27 in 10.0 mi ENE 5.8 mph - N/A   Clear
11:53 PM 46.0 °F - 28.9 °F 51% 30.26 in 10.0 mi Calm Calm - N/A   Clear